FW3342 Weather Reports


time (UTC)temp
F
wind
direction
speed
knots
gust
knots
rain 1hr
in
rain 24hr
in
rain mn
in
humidity
%
barometer
mb
20260507070106 47 264 0.9 6.1 0.00 0.31 0.00 92 1005.2
20260507064547 48 301 2.6 9.6 0.00 0.31 0.00 92 1005.2
20260507063055 48 251 0.9 5.2 0.00 0.31 0.00 92 1005.1
20260507061547 48 248 1.7 6.1 0.00 0.31 0.00 92 1004.9
20260507060045 48 261 1.7 6.1 0.00 0.31 0.00 92 1005.2
20260507054543 48 245 1.7 5.2 0.00 0.31 0.00 92 1005.0
20260507053040 48 243 1.7 5.2 0.00 0.31 0.00 92 1005.1
20260507051536 48 296 1.7 5.2 0.00 0.31 0.00 92 1005.1
20260507050036 49 245 0.9 6.1 0.00 0.31 0.00 92 1004.9
20260507044531 49 259 1.7 6.1 0.00 0.31 0.00 93 1005.0
20260507043029 49 240 1.7 6.1 0.00 0.31 0.00 93 1004.9
20260507041526 50 264 1.7 6.1 0.02 0.31 0.00 94 1004.9
20260507040025 50 245 2.6 6.1 0.02 0.31 0.00 94 1004.6
20260507034531 50 317 2.6 7.0 0.03 0.31 0.31 94 1004.5
20260507033017 51 248 1.7 6.1 0.03 0.31 0.31 93 1004.5
20260507031513 52 261 2.6 6.1 0.01 0.28 0.28 92 1004.7
20260507030012 53 8 2.6 7.8 0.02 0.28 0.28 91 1004.4
20260507024506 55 262 2.6 6.1 0.02 0.28 0.28 93 1004.3
20260507023001 56 238 1.7 5.2 0.02 0.28 0.28 93 1004.1
20260507021559 58 260 0.0 6.1 0.02 0.28 0.28 94 1003.9
20260507020055 58 250 2.6 7.0 0.01 0.27 0.27 94 1003.5
20260507014556 58 246 2.6 7.8 0.00 0.26 0.26 94 1003.6
20260507013108 58 248 1.7 8.7 0.00 0.26 0.26 94 1003.7
20260507011549 58 245 3.5 7.8 0.00 0.26 0.26 94 1003.6
20260507010055 58 197 3.5 7.0 0.00 0.26 0.26 94 1003.7
20260507004548 58 264 2.6 7.0 0.00 0.26 0.26 94 1003.6
20260507003044 58 253 4.3 7.8 0.00 0.26 0.26 94 1003.7
20260507001549 58 197 2.6 7.0 0.00 0.26 0.26 94 1003.5
20260507000042 58 251 2.6 6.1 0.00 0.26 0.26 94 1003.5
20260506234541 59 248 2.6 7.8 0.00 0.26 0.26 93 1003.3
20260506233054 59 247 2.6 7.8 0.00 0.26 0.26 93 1003.4
20260506231539 59 233 2.6 7.8 0.00 0.26 0.26 93 1003.5
20260506230033 59 256 2.6 5.2 0.00 0.26 0.26 93 1003.5
20260506224532 59 247 2.6 9.6 0.00 0.26 0.26 93 1003.6
20260506223029 59 258 2.6 8.7 0.00 0.26 0.26 93 1003.6
20260506221527 59 240 3.5 8.7 0.01 0.26 0.26 93 1003.7
20260506220029 59 222 2.6 7.8 0.02 0.26 0.26 93 1003.8
20260506214524 60 191 0.9 7.0 0.02 0.26 0.26 93 1003.8
20260506213023 60 146 2.6 7.8 0.02 0.26 0.26 93 1004.0
20260506211526 60 234 2.6 6.1 0.03 0.25 0.25 93 1004.1
20260506210030 60 179 1.7 7.8 0.03 0.24 0.24 93 1004.1
20260506204520 60 148 1.7 7.0 0.04 0.24 0.24 93 1004.3
20260506203019 60 217 1.7 6.1 0.05 0.24 0.24 93 1004.4
20260506201519 60 255 0.0 6.1 0.03 0.22 0.22 93 1004.5
20260506200033 60 244 0.9 5.2 0.03 0.21 0.21 92 1004.5
20260506194517 60 250 0.9 3.5 0.04 0.20 0.20 92 1004.4
20260506193015 60 247 1.7 4.3 0.08 0.19 0.19 92 1004.4
20260506191515 60 252 0.9 4.3 0.11 0.19 0.19 92 1004.5
20260506190011 60 247 0.9 4.3 0.14 0.18 0.18 92 1005.0
20260506184511 61 250 1.7 4.3 0.16 0.16 0.16 91 1005.4
20260506183010 61 250 1.7 4.3 0.10 0.10 0.10 90 1005.3
20260506181514 62 254 3.5 7.8 0.08 0.08 0.08 88 1005.5
20260506180016 63 261 5.2 9.6 0.04 0.04 0.04 84 1005.6
20260506174507 66 240 3.5 11.3 0.00 0.00 0.00 72 1005.2
20260506173006 68 226 2.6 10.4 0.00 0.00 0.00 65 1004.9
20260506171505 69 221 3.5 7.8 0.00 0.00 0.00 64 1005.0
20260506170002 69 250 4.3 9.6 0.00 0.00 0.00 64 1005.1
20260506164623 68 245 3.5 10.4 0.00 0.00 0.00 65 1005.4
20260506163103 68 229 3.5 9.6 0.00 0.00 0.00 66 1005.6
20260506161554 68 245 1.7 10.4 0.00 0.00 0.00 67 1005.9
20260506160105 67 262 3.5 9.6 0.00 0.00 0.00 68 1006.3
20260506154553 67 223 4.3 12.2 0.00 0.00 0.00 69 1006.7
20260506153047 67 257 2.6 8.7 0.00 0.00 0.00 70 1006.9
20260506151546 66 251 4.3 10.4 0.00 0.00 0.00 70 1007.1
20260506150044 66 207 4.3 12.2 0.00 0.00 0.00 72 1006.8
20260506144543 65 255 5.2 8.7 0.00 0.00 0.00 73 1006.9
20260506143041 65 238 6.1 11.3 0.00 0.00 0.00 74 1007.0
20260506141552 65 267 1.7 6.1 0.00 0.00 0.00 74 1006.8
20260506140035 64 187 0.9 4.3 0.00 0.00 0.00 76 1006.9
20260506134534 63 261 2.6 6.1 0.00 0.00 0.00 77 1007.0
20260506133033 63 251 1.7 6.1 0.00 0.00 0.00 78 1007.1
20260506131536 63 258 4.3 8.7 0.00 0.00 0.00 78 1007.1
20260506130031 63 241 2.6 7.8 0.00 0.00 0.00 78 1007.2
20260506124536 62 247 3.5 7.8 0.00 0.00 0.00 79 1007.1
20260506123038 62 243 0.9 5.2 0.00 0.00 0.00 79 1007.2
20260506121529 61 208 1.7 5.2 0.00 0.00 0.00 79 1007.5
20260506120037 61 249 0.0 3.5 0.00 0.00 0.00 80 1007.6
20260506114528 60 248 0.9 5.2 0.00 0.00 0.00 80 1007.8
20260506113027 60 253 1.7 3.5 0.00 0.00 0.00 81 1007.8
20260506111526 59 205 0.9 3.5 0.00 0.00 0.00 81 1007.9
20260506110026 59 252 0.9 3.5 0.00 0.00 0.00 82 1008.1
20260506104624 59 246 0.0 3.5 0.00 0.00 0.00 82 1007.9
20260506103028 59 250 0.9 4.3 0.00 0.00 0.00 82 1007.8
20260506101522 59 177 1.7 4.3 0.00 0.00 0.00 81 1007.9
20260506100022 59 237 0.9 6.1 0.00 0.00 0.00 81 1007.8
20260506094529 59 129 0.9 3.5 0.00 0.00 0.00 80 1007.5
20260506093024 59 236 0.9 3.5 0.00 0.00 0.00 79 1007.6
20260506091514 59 223 0.0 2.6 0.00 0.00 0.00 78 1007.6
20260506090013 60 237 1.7 4.3 0.00 0.00 0.00 77 1007.6
20260506084511 60 252 1.7 5.2 0.00 0.00 0.00 76 1007.6
20260506083011 60 253 1.7 5.2 0.00 0.00 0.00 76 1007.6
20260506081509 60 248 1.7 4.3 0.00 0.00 0.00 75 1007.7
20260506073004 61 244 2.6 5.2 0.00 0.00 0.00 73 1007.5
20260506071506 61 262 3.5 5.2 0.00 0.00 0.00 72 1007.4